Peachtree City, GA

8:57 AM EST on November 24, 2017 (GMT -0500)
Peachtree City-Falcon

Weather History for KFFC - March, 2014

Change the Weather History Date:

Friday, March 28, 2014

  Actual Average Record
Temperature  
Mean Temperature 57 °F 56 °F  
Max Temperature 61 °F 69 °F 82 °F (2007)
Min Temperature 53 °F 43 °F 24 °F (2001)
Degree Days  
Heating Degree Days 8 9  
Month to date heating degree days 391 343  
Since 1 July heating degree days 2921 2725  
Cooling Degree Days 0 0  
Month to date cooling degree days 0 0  
Year to date cooling degree days 0 0  
Growing Degree Days 6 (Base 50)    
Moisture  
Dew Point 54 °F    
Average Humidity 81    
Maximum Humidity 100    
Minimum Humidity 62    
Precipitation  
Precipitation 0.49 in 0.15 in 1.29 in (2009)
Month to date precipitation 4.01 4.67  
Year to date precipitation 10.35 13.77  
Snow  
Snow 0.00 in - - ()
Month to date snowfall 0.0  
Since 1 July snowfall 1.8  
Snow Depth -    
Sea Level Pressure  
Sea Level Pressure 30.11 in    
Wind  
Wind Speed 5 mph (SE)    
Max Wind Speed 21 mph    
Max Gust Speed 27 mph    
Visibility 7 miles    
Events Rain    
T = Trace of Precipitation, MM = Missing Value Source: NWS Daily Summary

Daily Weather History Graph

Daily Weather History Graph

Search for Another Location

Airport or City:

Trip Planner

Search our weather history database for the weather conditions in past years. The results will help you decide how hot, cold, wet, or windy it might be!

Date:

Astronomy

Mar. 28, 2014 Rise Set
Actual Time 7:31 AM EDT 7:55 PM EDT
Civil Twilight 7:06 AM EDT 8:20 PM EDT
Nautical Twilight 6:37 AM EDT 8:49 PM EDT
Astronomical Twilight 6:07 AM EDT 9:19 PM EDT
Moon 5:54 AM EDT (3/28) 5:56 PM EDT (3/28)
Length of Visible Light 13h 14m
Length of Day
12h 24m
Waning Crescent, 6% of the Moon is Illuminated
Mar 28
Waning Crescent
Mar 30
New
Apr 7
First Quarter
Apr 15
Full
Apr 22
Last Quarter

Hourly Weather History & Observations

Time (EDT) Temp. Dew Point Humidity Pressure Visibility Wind Dir Wind Speed Gust Speed Precip Events Conditions
12:53 AM 59.0 °F 46.9 °F 64% 30.17 in 10.0 mi SSE 6.9 mph - N/A   Partly Cloudy
1:53 AM 57.9 °F 48.0 °F 70% 30.15 in 10.0 mi SE 6.9 mph - N/A   Partly Cloudy
2:53 AM 57.0 °F 48.0 °F 72% 30.17 in 10.0 mi Calm Calm - N/A   Mostly Cloudy
3:53 AM 57.0 °F 48.9 °F 74% 30.15 in 10.0 mi ESE 6.9 mph - N/A   Overcast
4:53 AM 57.0 °F 48.9 °F 74% 30.13 in 10.0 mi East 5.8 mph - N/A   Overcast
5:53 AM 57.0 °F 48.9 °F 74% 30.15 in 10.0 mi East 3.5 mph - N/A   Overcast
6:53 AM 55.0 °F 51.1 °F 86% 30.17 in 5.0 mi NNW 4.6 mph - 0.00 in Rain Light Rain
7:24 AM 54.0 °F 52.0 °F 93% 30.16 in 2.5 mi East 5.8 mph - 0.03 in Rain Rain
7:37 AM 54.0 °F 52.0 °F 93% 30.17 in 3.0 mi Calm Calm - 0.06 in Rain Light Rain
7:53 AM 54.0 °F 52.0 °F 93% 30.18 in 3.0 mi East 3.5 mph - 0.10 in Rain Rain
8:15 AM 54.0 °F 52.0 °F 93% 30.19 in 1.8 mi Calm Calm - 0.07 in Rain Heavy Rain
8:45 AM 53.1 °F 52.0 °F 96% 30.16 in 2.5 mi SE 13.8 mph - 0.13 in Rain Light Rain
8:53 AM 53.1 °F 52.0 °F 96% 30.16 in 3.0 mi SE 11.5 mph - 0.14 in Rain Light Rain
9:10 AM 54.0 °F 52.0 °F 93% 30.17 in 3.0 mi ESE 4.6 mph - 0.01 in Rain Light Rain
9:28 AM 54.0 °F 52.0 °F 93% 30.17 in 3.0 mi ESE 5.8 mph - 0.03 in Rain Light Rain
9:53 AM 54.0 °F 53.1 °F 97% 30.17 in 3.0 mi SE 3.5 mph - 0.07 in Rain Light Rain
10:53 AM 55.9 °F 54.0 °F 93% 30.16 in 4.0 mi SE 8.1 mph - 0.05 in Rain Light Rain
11:11 AM 55.9 °F 55.0 °F 97% 30.16 in 4.0 mi SE 5.8 mph - 0.01 in Rain Light Rain
11:20 AM 55.9 °F 55.0 °F 97% 30.16 in 4.0 mi SSE 6.9 mph - 0.02 in Rain Light Rain
11:49 AM 57.2 °F 55.4 °F 94% 30.17 in 3.0 mi Calm Calm - 0.04 in Rain Light Rain
11:53 AM 57.0 °F 55.9 °F 96% 30.17 in 3.0 mi South 3.5 mph - 0.04 in Rain Light Rain
12:33 PM 57.0 °F 55.0 °F 93% 30.16 in 6.0 mi SSE 6.9 mph - 0.03 in Rain Light Rain
12:53 PM 57.0 °F 55.0 °F 93% 30.16 in 5.0 mi SSE 5.8 mph - 0.03 in Rain Light Rain
1:53 PM 57.0 °F 55.0 °F 93% 30.14 in 8.0 mi SSE 8.1 mph - 0.03 in Rain Light Rain
2:53 PM 57.0 °F 55.9 °F 96% 30.12 in 9.0 mi South 5.8 mph - 0.01 in Rain Light Rain
3:53 PM 57.9 °F 57.0 °F 97% 30.04 in 9.0 mi SSE 9.2 mph - 0.00 in Rain Light Rain
4:53 PM 57.9 °F 57.0 °F 97% 29.97 in 10.0 mi SE 9.2 mph 27.6 mph 0.01 in   Overcast
5:16 PM 59.0 °F 57.0 °F 93% 30.02 in 10.0 mi NW 6.9 mph - N/A   Overcast
5:30 PM 59.0 °F 57.0 °F 93% 30.02 in 10.0 mi SSW 3.5 mph - N/A   Mostly Cloudy
5:49 PM 59.0 °F 57.2 °F 94% 30.02 in 10.0 mi SE 5.8 mph - N/A   Mostly Cloudy
5:53 PM 59.0 °F 57.0 °F 93% 30.01 in 10.0 mi SE 6.9 mph - N/A   Mostly Cloudy
6:43 PM 59.0 °F 57.0 °F 93% 30.01 in 10.0 mi Calm Calm - N/A   Overcast
6:53 PM 59.0 °F 57.0 °F 93% 30.02 in 10.0 mi ENE 4.6 mph - N/A   Overcast
7:53 PM 59.0 °F 57.0 °F 93% 30.02 in 10.0 mi East 3.5 mph - N/A   Overcast
8:51 PM 59.0 °F 57.2 °F 94% 30.02 in 10.0 mi Calm Calm - N/A   Overcast
8:53 PM 59.0 °F 57.0 °F 93% 30.03 in 10.0 mi Calm Calm - N/A   Overcast
9:53 PM 57.9 °F 57.0 °F 97% 30.02 in 10.0 mi East 4.6 mph - N/A   Overcast
10:53 PM 57.9 °F 57.0 °F 97% 30.03 in 10.0 mi East 4.6 mph - N/A   Overcast
11:53 PM 57.9 °F 57.0 °F 97% 30.03 in 3.0 mi East 4.6 mph - 0.00 in Rain Light Rain